Preview of NWS' New Version of Forecast
This preview is not operational and should not be used for support decisions.

Regional Weather Roundup (RWR)

Issued by Albany, NY (ALY)

                            
000
ASUS41 KALY 220410
RWRALY

NEW YORK STATE HOURLY WEATHER ROUNDUP
NATIONAL WEATHER SERVICE ALBANY NY
1100 PM EST MON JAN 21 2019

NOTE: "FAIR" INDICATES FEW OR NO CLOUDS BELOW 12,000 FEET WITH NO
SIGNIFICANT WEATHER AND/OR NO OBSTRUCTIONS TO VISIBILITY.

NYZ032-033-038>043-046>054-057>066-NYZ062>081-082-084-220500-
EAST

  
CITY           SKY/WX    TMP DP  RH WIND       PRES   REMARKS
ALBANY         FAIR       5 -11  47 NW20G32   30.34R WCI -15          
GLENS FALLS    FAIR       2 -13  49 NW14G25   30.33R WCI -16          
POUGHKEEPSIE   FAIR      11  -4  51 NW8       30.33R WCI  -1          
NEWBURGH       CLEAR      9   0  66 W17       30.31R WCI -10          
MONTGOMERY     FAIR      10  -2  58 NW14G28   30.30S WCI  -6          
WHITE PLAINS   FAIR      11  -1  58 NW22G38   30.28R WCI  -8          
ISLIP          FAIR      12  -3  51 NW20G29   30.29R WCI  -6          
NEW YORK CITY  FAIR      15   1  53 NW22G33   30.38R WCI  -3          
CENTRAL PARK   FAIR      13  -2  51 MISG      30.38R                  
$$

NYZ005>009-017-018-044>046-055-056-220500-
CENTRAL

  
CITY           SKY/WX    TMP DP  RH WIND       PRES   REMARKS
FULTON         FAIR       8  -1  66 NW8       30.49R WCI  -4          
SYRACUSE       MOCLDY     7   0  73 W9        30.49R WCI  -7          
ROME           FAIR      -5  -9  83 NW6       30.47R WCI -18          
ELMIRA         CLOUDY    -1  -8  72 VRB3      30.48R                  
BINGHAMTON     LGT SNOW   5   1  83 NW10      30.34R FOG     WCI -10  
MONTICELLO     FLURRIES   4  -1  80 NW16G22   30.27R WCI -15          
$$

NYZ026>034-041>043-087-220500-
NORTH

  
CITY           SKY/WX    TMP DP  RH WIND       PRES   REMARKS
WATERTOWN      FAIR      -9 -15  75 CALM      30.52R                  
FORT DRUM      NOT AVBL                                               
OGDENSBURG     MOCLDY    -6 -17  59 W7        30.47R WCI -20          
MASSENA        FAIR      -4 -13  65 W9        30.48R WCI -20          
SARANAC LAKE   FAIR     -10 -15  78 VRB6      30.24R WCI -23          
PLATTSBURGH    FAIR       1 -13  51 NW12G22   30.32R WCI -16          
$$

NYZ001>004-010>016-019>021-085-220500-
WEST

  
CITY           SKY/WX    TMP DP  RH WIND       PRES   REMARKS
NIAGARA FALLS  FAIR       2  -3  80 SW6       30.55R WCI  -9          
BUFFALO        FAIR       4  -1  80 SW8       30.54S WCI  -9          
DUNKIRK        MOCLDY    12   2  64 NW6       30.55F WCI   3          
JAMESTOWN      FLURRIES   7   4  87 N3        30.44F                  
WELLSVILLE     FAIR      -1  -4  87 NW8       30.41R WCI -15          
ROCHESTER      LGT SNOW   8   5  87 W5        30.53R FOG     WCI   0  
PENN YAN       CLOUDY     9   1  70 W8        30.48R WCI  -3          
$$

             KEY
       WCI = WIND CHILL INDEX
       VSB = VISIBILITY
       HX  = HEAT INDEX
$$